Weather History for Danville, KY

Change the Weather History Date:

Wednesday, May 7, 2014

  Actual Average (KLEX) Record (KLEX)
Temperature  
Mean Temperature 70 °F 62 °F  
Max Temperature 82 °F 72 °F 89 °F (1936)
Min Temperature 57 °F 51 °F 33 °F (1989)
Degree Days  
Heating Degree Days 0 5  
Month to date heating degree days 38  
Since 1 July heating degree days 4527  
Cooling Degree Days 4 1  
Month to date cooling degree days 7  
Year to date cooling degree days 29  
Growing Degree Days 20 (Base 50)    
Moisture  
Dew Point 53 °F    
Average Humidity 57    
Maximum Humidity 88    
Minimum Humidity 32    
Precipitation  
Precipitation 0.00 in 0.16 in 2.80 in (1961)
Month to date precipitation 1.14  
Year to date precipitation 15.21  
Snow  
Snow 0.00 in 0.00 in 1.00 in (1898)
Month to date snowfall 0.0  
Since 1 July snowfall 13.0  
Snow Depth -    
Sea Level Pressure  
Sea Level Pressure 30.01 in    
Wind  
Wind Speed 4 mph (SSW)    
Max Wind Speed 14 mph    
Max Gust Speed 23 mph    
Visibility 10 miles    
Events      
T = Trace of Precipitation, MM = Missing Value Source: NWS Daily Summary

Daily Weather History Graph

Daily Weather History Graph

Search for Another Location

Airport:

Trip Planner

Search our weather history database for the weather conditions in past years. The results will help you decide how hot, cold, wet, or windy it might be!

Date:

Astronomy

May. 07, 2014 Rise Set
Actual Time 6:37 AM EDT 8:34 PM EDT
Civil Twilight 6:08 AM EDT 9:03 PM EDT
Nautical Twilight 5:33 AM EDT 9:38 PM EDT
Astronomical Twilight 4:56 AM EDT 10:15 PM EDT
Moon 1:46 PM EDT (5/7) 2:27 AM EDT (5/7)
Length of Visible Light 14h 54m
Length of Day
13h 57m
First Quarter, 55% of the Moon is Illuminated
May 7
First Quarter
May 14
Full
May 21
Last Quarter
May 28
New
Jun 5
First Quarter

Hourly Weather History & Observations

Time (EDT) Temp. Heat Index Dew Point Humidity Pressure Visibility Wind Dir Wind Speed Gust Speed Precip Events Conditions
12:15 AM 59.0 °F - 55.4 °F 88% 29.95 in 10.0 mi Calm Calm - N/A   Clear
12:55 AM 57.2 °F - 53.6 °F 88% 29.95 in 10.0 mi Calm Calm - N/A   Clear
1:15 AM 59.0 °F - 53.6 °F 82% 29.95 in 10.0 mi Calm Calm - N/A   Clear
1:35 AM 59.0 °F - 51.8 °F 77% 29.95 in 10.0 mi Calm Calm - N/A   Clear
1:55 AM 60.8 °F - 51.8 °F 72% 29.95 in 10.0 mi Calm Calm - N/A   Clear
2:15 AM 60.8 °F - 51.8 °F 72% 29.95 in 10.0 mi Calm Calm - N/A   Clear
2:35 AM 60.8 °F - 51.8 °F 72% 29.95 in 10.0 mi SSW 4.6 mph - N/A   Clear
2:55 AM 62.6 °F - 51.8 °F 68% 29.95 in 10.0 mi SSW 4.6 mph - N/A   Clear
3:15 AM 62.6 °F - 51.8 °F 68% 29.95 in 10.0 mi SSW 3.5 mph - N/A   Clear
3:35 AM 62.6 °F - 51.8 °F 68% 29.95 in 10.0 mi SSW 5.8 mph - N/A   Clear
4:15 AM 62.6 °F - 51.8 °F 68% 29.96 in 10.0 mi SSW 5.8 mph - N/A   Clear
4:35 AM 62.6 °F - 51.8 °F 68% 29.97 in 10.0 mi SSW 3.5 mph - N/A   Clear
4:55 AM 60.8 °F - 51.8 °F 72% 29.98 in 10.0 mi SSW 3.5 mph - N/A   Clear
5:15 AM 60.8 °F - 51.8 °F 72% 29.98 in 10.0 mi SSW 4.6 mph - N/A   Clear
5:35 AM 62.6 °F - 51.8 °F 68% 29.98 in 10.0 mi SSW 5.8 mph - N/A   Clear
5:55 AM 60.8 °F - 51.8 °F 72% 29.99 in 10.0 mi Calm Calm - N/A   Clear
6:15 AM 59.0 °F - 51.8 °F 77% 29.99 in 10.0 mi Calm Calm - N/A   Clear
6:35 AM 59.0 °F - 51.8 °F 77% 30.00 in 10.0 mi Calm Calm - N/A   Clear
6:55 AM 59.0 °F - 51.8 °F 77% 30.01 in 10.0 mi SSW 3.5 mph - N/A   Clear
7:15 AM 60.8 °F - 53.6 °F 77% 30.02 in 10.0 mi SSW 5.8 mph - N/A   Clear
7:35 AM 60.8 °F - 53.6 °F 77% 30.02 in 10.0 mi South 4.6 mph - N/A   Clear
7:55 AM 60.8 °F - 53.6 °F 77% 30.04 in 10.0 mi SSW 5.8 mph - N/A   Clear
8:15 AM 62.6 °F - 55.4 °F 77% 30.05 in 10.0 mi SSW 6.9 mph - N/A   Clear
8:35 AM 64.4 °F - 55.4 °F 73% 30.05 in 10.0 mi SSW 4.6 mph - N/A   Clear
9:00 AM 68.0 °F - 55.4 °F 64% 30.06 in 10.0 mi SSW 4.6 mph - N/A   Clear
9:15 AM 69.8 °F - 55.4 °F 60% 30.06 in 10.0 mi SSW 5.8 mph - N/A   Clear
9:35 AM 69.8 °F - 55.4 °F 60% 30.06 in 10.0 mi SSW 6.9 mph - N/A   Clear
9:55 AM 71.6 °F - 55.4 °F 57% 30.07 in 10.0 mi SSW 9.2 mph - N/A   Clear
10:20 AM 71.6 °F - 57.2 °F 60% 30.07 in 10.0 mi SSW 5.8 mph - N/A   Clear
10:40 AM 73.4 °F - 57.2 °F 57% 30.07 in 10.0 mi WSW 6.9 mph - N/A   Clear
11:15 AM 77.0 °F - 57.2 °F 50% 30.07 in 10.0 mi WSW 12.7 mph 23.0 mph N/A   Clear
11:55 AM 77.0 °F - 57.2 °F 50% 30.07 in 10.0 mi West 11.5 mph 19.6 mph N/A   Clear
12:15 PM 77.0 °F - 57.2 °F 50% 30.07 in 10.0 mi SW 12.7 mph 18.4 mph N/A   Clear
12:35 PM 78.8 °F - 57.2 °F 47% 30.06 in 10.0 mi SSW 13.8 mph 19.6 mph N/A   Clear
12:55 PM 78.8 °F - 57.2 °F 47% 30.06 in 10.0 mi SW 9.2 mph - N/A   Clear
1:15 PM 78.8 °F - 57.2 °F 47% 30.06 in 10.0 mi WSW 13.8 mph - N/A   Clear
1:40 PM 78.8 °F - 55.4 °F 44% 30.05 in 10.0 mi SSW 11.5 mph 17.3 mph N/A   Clear
3:15 PM 82.4 °F 81.7 °F 55.4 °F 39% 30.04 in 10.0 mi SW 12.7 mph 18.4 mph N/A   Clear
3:55 PM 82.4 °F 81.4 °F 53.6 °F 37% 30.03 in 10.0 mi SW 12.7 mph - N/A   Clear
4:15 PM 82.4 °F - 51.8 °F 35% 30.02 in 10.0 mi SW 11.5 mph 17.3 mph N/A   Clear
4:35 PM 82.4 °F - 51.8 °F 35% 30.01 in 10.0 mi SW 11.5 mph - N/A   Clear
4:55 PM 82.4 °F - 50.0 °F 32% 30.01 in 10.0 mi SSW 11.5 mph 20.7 mph N/A   Clear
5:15 PM 82.4 °F - 51.8 °F 35% 30.01 in 10.0 mi SW 13.8 mph - N/A   Clear
5:40 PM 82.4 °F - 50.0 °F 32% 30.01 in 10.0 mi SSW 12.7 mph - N/A   Clear
5:55 PM 82.4 °F - 50.0 °F 32% 30.01 in 10.0 mi SW 13.8 mph 18.4 mph N/A   Clear
6:15 PM 82.4 °F - 51.8 °F 35% 30.01 in 10.0 mi SSW 13.8 mph 18.4 mph N/A   Clear
6:40 PM 82.4 °F 81.4 °F 53.6 °F 37% 30.01 in 10.0 mi SSW 10.4 mph - N/A   Clear
6:50 PM 80.6 °F 80.3 °F 53.6 °F 39% 30.01 in 10.0 mi SSW 6.9 mph - N/A   Clear
7:15 PM 80.6 °F 80.3 °F 53.6 °F 39% 30.01 in 10.0 mi SSW 5.8 mph - N/A   Clear
7:40 PM 80.6 °F 80.3 °F 53.6 °F 39% 30.00 in 10.0 mi SSW 8.1 mph - N/A   Clear
7:55 PM 78.8 °F - 53.6 °F 42% 30.00 in 10.0 mi South 5.8 mph - N/A   Clear
8:15 PM 77.0 °F - 53.6 °F 44% 30.00 in 10.0 mi SSW 4.6 mph - N/A   Clear
8:35 PM 75.2 °F - 53.6 °F 47% 30.01 in 10.0 mi SSW 5.8 mph - N/A   Clear
8:55 PM 73.4 °F - 53.6 °F 50% 30.01 in 10.0 mi Calm Calm - N/A   Clear
9:15 PM 71.6 °F - 51.8 °F 50% 30.01 in 10.0 mi Calm Calm - N/A   Clear
9:35 PM 69.8 °F - 51.8 °F 53% 30.01 in 10.0 mi Calm Calm - N/A   Clear
9:55 PM 69.8 °F - 51.8 °F 53% 30.02 in 10.0 mi SW 5.8 mph - N/A   Clear
10:15 PM 68.0 °F - 51.8 °F 56% 30.02 in 10.0 mi Calm Calm - N/A   Clear
10:35 PM 68.0 °F - 51.8 °F 56% 30.03 in 10.0 mi SSW 4.6 mph - N/A   Clear
10:55 PM 68.0 °F - 51.8 °F 56% 30.03 in 10.0 mi South 4.6 mph - N/A   Clear
11:15 PM 68.0 °F - 51.8 °F 56% 30.03 in 10.0 mi South 4.6 mph - N/A   Clear
11:35 PM 68.0 °F - 51.8 °F 56% 30.03 in 10.0 mi South 4.6 mph - N/A   Clear
11:55 PM 68.0 °F - 51.8 °F 56% 30.04 in 10.0 mi SSW 5.8 mph - N/A   Clear